Regional Weather Roundup
Issued by NWS Little Rock, AR

Home | Current Version | Previous Version | Graphics & Text | Print | Product List | Glossary On
Versions: 1 2 3 4 5 6 7 8 9 10 11 12 13 14 15 16 17 18 19 20 21 22 23 24 25 26 27 28 29 30 31 32 33 34 35 36 37 38 39 40 41 42 43 44 45 46 47 48 49 50
000
ASUS44 KLZK 110905
RWRLZK

WEATHER ROUNDUP FOR ARKANSAS
NATIONAL WEATHER SERVICE LITTLE ROCK AR
400 AM CDT FRI JUL 11 2014

NOTE: "FAIR" INDICATES FEW OR NO CLOUDS BELOW 12,000 FEET WITH NO
SIGNIFICANT WEATHER AND/OR OBSTRUCTIONS TO VISIBILITY.

ARZ001-003-010-029-111000-
NORTHWEST ARKANSAS

CITY           SKY/WX    TMP DP  RH WIND       PRES   REMARKS
FAYETTEVILLE   CLEAR     65  64  97 CALM      30.09F
FORT SMITH     PTCLDY    71  69  93 E9        30.06F
HARRISON       MOCLDY    67  65  93 SE6       30.13S
BENTONVILLE    PTCLDY    68  63  83 SE6       30.10S
ROGERS         CLOUDY    70  64  81 SE10      30.10F
SILOAM SPGS    PTCLDY    70  59  68 SE5       30.09S
HIGHFILL       MOCLDY    67  65  93 E3        30.09S
$$

ARZ004-005-016-111000-
NORTH CENTRAL ARKANSAS

CITY           SKY/WX    TMP DP  RH WIND       PRES   REMARKS
BATESVILLE     CLOUDY    73  72  94 CALM      30.10S
FLIPPIN        PTCLDY    70  66  88 CALM      30.11S
MTN HOME       CLOUDY    70  69  97 CALM      30.11S
$$

ARZ040-041-111000-
WEST CENTRAL ARKANSAS

CITY           SKY/WX    TMP DP  RH WIND       PRES   REMARKS
MENA           PTCLDY    72 N/A N/A CALM      30.11S
MOUNT IDA      CLOUDY    70  69  97 CALM      30.08S
$$

ARZ009-017-025-026-028-111000-
NORTHEAST ARKANSAS

CITY           SKY/WX    TMP DP  RH WIND       PRES   REMARKS
CORNING        CLOUDY    72  70  94 NE5       30.11S
JONESBORO      MOCLDY    73  69  87 NE3       30.09S
NEWPORT        CLOUDY    74  72  93 NW5       30.10R
WALNUT RIDGE   PTCLDY    72  68  88 N6        30.10R
BLYTHEVILLE    PTCLDY    71  69  93 NE3       30.10R
$$

ARZ022-023-033-042-044-111000-
CENTRAL ARKANSAS

CITY           SKY/WX    TMP DP  RH WIND       PRES   REMARKS
LITTLE ROCK    CLOUDY    72  69  90 CALM      30.09S
N LITTLE ROCK    N/A     70  70  99 W2        30.09S
JACKSONVILLE   CLOUDY    72  71  99 W6        30.09R
SEARCY         CLOUDY    74  73  96 CALM      30.09S
HOT SPRINGS    MOCLDY    72  68  87 E3        30.10S
RUSSELLVILLE   MOCLDY    72  70  93 CALM      30.08F
CLINTON        FAIR      72  72 100 CALM      30.11S
$$

ARZ036-111000-
EAST ARKANSAS

CITY           SKY/WX    TMP DP  RH WIND       PRES   REMARKS
WEST MEMPHIS   CLOUDY    74  71  91 CALM      30.07S
$$

ARZ050-053-066-070-073-111000-
SOUTHWEST ARKANSAS

CITY           SKY/WX    TMP DP  RH WIND       PRES   REMARKS
ARKADELPHIA    FAIR      72  71  96 CALM      30.09S
CAMDEN         PTCLDY    70  66  88 CALM      30.08S
TEXARKANA      PTCLDY    72  70  93 E3        30.08R
EL DORADO      CLEAR     69  69 100 CALM      30.08F
DE QUEEN       MOCLDY    73  70  90 NE3       30.06S
$$

ARZ056-057-069-111000-
SOUTHEAST ARKANSAS

CITY           SKY/WX    TMP DP  RH WIND       PRES   REMARKS
PINE BLUFF     CLOUDY    72  71  97 CALM      30.08S FOG
MONTICELLO     CLOUDY    72  70  93 CALM      30.09S

$$




USA.gov is the U.S. government's official web portal to all federal, state and local government web resources and services.